When you browse on this site, cookies collect data to enhance your experience and personalize the content and advertising you see.
Visit our Privacy Policy to learn more. By continuing to use the site, you agree to this use of cookies and data.
  • în România
  • Lista ţărilor
  • Pe 7 zile
  • Temperatura apei
  • Hartă satelitară
  • Meteo pe hartă
  • Widget-uri
  • user-avatar
    Intrare

    Meteo pe oră la Aromatne

    Astăzi, 16 Iulie, Marţi

    Timp Temperatura Precipitaţii Vânt Presiune Umiditate
    00:00 +19°C° 0 mm 1 m/s 740 mmHg 82%
    01:00 +19°C° 0 mm 1 m/s 740 mmHg 81%
    02:00 +19°C° 0 mm 1 m/s 741 mmHg 81%
    03:00 +19°C° 0.2 mm 1 m/s 741 mmHg 81%
    04:00 +19°C° 0.2 mm 1 m/s 741 mmHg 80%
    05:00 +19°C° 0.2 mm 1 m/s 741 mmHg 80%
    06:00 +20°C° 0.2 mm 2 m/s 741 mmHg 74%
    07:00 +23°C° 0.2 mm 2 m/s 741 mmHg 67%
    08:00 +24°C° 0.2 mm 2 m/s 741 mmHg 61%
    09:00 +25°C° 0.6 mm 3 m/s 741 mmHg 58%
    10:00 +26°C° 0.6 mm 4 m/s 742 mmHg 54%
    11:00 +27°C° 0.6 mm 4 m/s 742 mmHg 51%
    12:00 +27°C° 0.2 mm 4 m/s 742 mmHg 50%
    13:00 +27°C° 0.2 mm 4 m/s 742 mmHg 48%
    14:00 +28°C° 0.2 mm 4 m/s 742 mmHg 47%
    15:00 +27°C° 0 mm 4 m/s 742 mmHg 49%
    16:00 +26°C° 0 mm 4 m/s 742 mmHg 51%
    17:00 +25°C° 0 mm 4 m/s 742 mmHg 54%
    18:00 +24°C° 0 mm 3 m/s 742 mmHg 63%
    19:00 +21°C° 0 mm 2 m/s 742 mmHg 71%
    20:00 +20°C° 0 mm 1 m/s 742 mmHg 80%
    21:00 +19°C° 0 mm 1 m/s 742 mmHg 82%
    22:00 +19°C° 0 mm 1 m/s 742 mmHg 83%
    23:00 +19°C° 0 mm 1 m/s 742 mmHg 84%

    Mâine, 17 Iulie, Miercuri

    Timp Temperatura Precipitaţii Vânt Presiune Umiditate
    00:00 +18°C° 0 mm 1 m/s 742 mmHg 84%
    01:00 +18°C° 0 mm 1 m/s 742 mmHg 83%
    02:00 +18°C° 0 mm 1 m/s 742 mmHg 83%
    03:00 +18°C° 0 mm 1 m/s 742 mmHg 82%
    04:00 +18°C° 0 mm 1 m/s 741 mmHg 82%
    05:00 +18°C° 0 mm 1 m/s 741 mmHg 81%
    06:00 +20°C° 0 mm 1 m/s 742 mmHg 73%
    07:00 +23°C° 0 mm 1 m/s 742 mmHg 65%
    08:00 +25°C° 0 mm 1 m/s 742 mmHg 56%
    09:00 +26°C° 0 mm 1 m/s 742 mmHg 51%
    10:00 +27°C° 0 mm 2 m/s 742 mmHg 46%
    11:00 +28°C° 0 mm 2 m/s 742 mmHg 41%
    12:00 +29°C° 0 mm 3 m/s 742 mmHg 41%
    13:00 +29°C° 0 mm 3 m/s 742 mmHg 42%
    14:00 +29°C° 0 mm 4 m/s 742 mmHg 43%
    15:00 +28°C° 0 mm 4 m/s 742 mmHg 45%
    16:00 +28°C° 0 mm 4 m/s 742 mmHg 47%
    17:00 +27°C° 0 mm 4 m/s 741 mmHg 50%
    18:00 +25°C° 0 mm 3 m/s 741 mmHg 55%
    19:00 +24°C° 0 mm 2 m/s 741 mmHg 61%
    20:00 +21°C° 0 mm 2 m/s 742 mmHg 66%
    21:00 +20°C° 0 mm 2 m/s 742 mmHg 68%
    22:00 +20°C° 0 mm 1 m/s 741 mmHg 69%
    23:00 +20°C° 0 mm 1 m/s 741 mmHg 71%

    Poimâine, 18 Iulie, Joi

    Timp Temperatura Precipitaţii Vânt Presiune Umiditate
    00:00 +20°C° 0 mm 1 m/s 742 mmHg 71%
    01:00 +19°C° 0 mm 1 m/s 742 mmHg 71%
    02:00 +19°C° 0 mm 1 m/s 742 mmHg 71%
    03:00 +19°C° 0 mm 1 m/s 742 mmHg 71%
    04:00 +19°C° 0 mm 1 m/s 742 mmHg 71%
    05:00 +20°C° 0 mm 1 m/s 742 mmHg 71%
    06:00 +21°C° 0 mm 2 m/s 742 mmHg 64%
    07:00 +24°C° 0 mm 2 m/s 742 mmHg 57%
    08:00 +26°C° 0 mm 3 m/s 743 mmHg 50%
    09:00 +27°C° 0 mm 3 m/s 743 mmHg 46%
    10:00 +28°C° 0 mm 3 m/s 743 mmHg 42%
    11:00 +29°C° 0 mm 3 m/s 744 mmHg 37%
    12:00 +30°C° 0 mm 3 m/s 744 mmHg 37%
    13:00 +30°C° 0 mm 3 m/s 744 mmHg 37%
    14:00 +30°C° 0 mm 4 m/s 744 mmHg 37%
    15:00 +29°C° 0 mm 4 m/s 744 mmHg 40%
    16:00 +28°C° 0 mm 3 m/s 744 mmHg 43%
    17:00 +27°C° 0 mm 3 m/s 744 mmHg 46%
    18:00 +26°C° 0 mm 3 m/s 744 mmHg 51%
    19:00 +24°C° 0 mm 3 m/s 745 mmHg 56%
    20:00 +23°C° 0 mm 2 m/s 745 mmHg 61%
    21:00 +21°C° 0 mm 2 m/s 745 mmHg 64%
    22:00 +20°C° 0 mm 2 m/s 745 mmHg 68%
    23:00 +20°C° 0 mm 1 m/s 745 mmHg 72%

    19 Iulie, Vineri

    Timp Temperatura Precipitaţii Vânt Presiune Umiditate
    00:00 +20°C° 0 mm 1 m/s 746 mmHg 73%
    01:00 +19°C° 0 mm 1 m/s 746 mmHg 73%
    02:00 +19°C° 0 mm 1 m/s 746 mmHg 74%
    03:00 +19°C° 0 mm 1 m/s 746 mmHg 73%
    04:00 +19°C° 0 mm 1 m/s 746 mmHg 73%
    05:00 +19°C° 0 mm 1 m/s 746 mmHg 72%
    06:00 +22°C° 0 mm 1 m/s 746 mmHg 64%
    07:00 +24°C° 0 mm 2 m/s 747 mmHg 56%
    08:00 +26°C° 0 mm 2 m/s 747 mmHg 47%
    09:00 +27°C° 0 mm 2 m/s 747 mmHg 44%
    10:00 +29°C° 0 mm 2 m/s 747 mmHg 40%
    11:00 +30°C° 0 mm 2 m/s 747 mmHg 36%
    12:00 +30°C° 0 mm 3 m/s 747 mmHg 37%
    13:00 +30°C° 0 mm 3 m/s 747 mmHg 37%
    14:00 +30°C° 0 mm 4 m/s 747 mmHg 37%
    15:00 +29°C° 0 mm 4 m/s 747 mmHg 39%
    16:00 +29°C° 0 mm 4 m/s 747 mmHg 42%
    17:00 +28°C° 0 mm 3 m/s 747 mmHg 44%
    18:00 +26°C° 0 mm 3 m/s 747 mmHg 50%
    19:00 +24°C° 0 mm 2 m/s 747 mmHg 56%
    20:00 +22°C° 0 mm 1 m/s 748 mmHg 61%
    21:00 +22°C° 0 mm 1 m/s 748 mmHg 62%
    22:00 +22°C° 0 mm 1 m/s 748 mmHg 62%
    23:00 +22°C° 0 mm 1 m/s 748 mmHg 62%

    20 Iulie, Sâmbătă

    Timp Temperatura Precipitaţii Vânt Presiune Umiditate
    00:00 +21°C° 0 mm 1 m/s 748 mmHg 62%
    01:00 +21°C° 0 mm 1 m/s 748 mmHg 63%
    02:00 +21°C° 0 mm 1 m/s 748 mmHg 63%
    03:00 +21°C° 0 mm 1 m/s 748 mmHg 63%
    04:00 +20°C° 0 mm 2 m/s 748 mmHg 63%
    05:00 +20°C° 0 mm 2 m/s 748 mmHg 63%
    06:00 +24°C° 0 mm 2 m/s 748 mmHg 55%
    07:00 +26°C° 0 mm 1 m/s 749 mmHg 48%
    08:00 +29°C° 0 mm 1 m/s 749 mmHg 40%
    09:00 +30°C° 0 mm 2 m/s 749 mmHg 37%
    10:00 +31°C° 0 mm 2 m/s 749 mmHg 34%
    11:00 +31°C° 0 mm 3 m/s 749 mmHg 30%
    12:00 +31°C° 0 mm 3 m/s 749 mmHg 31%
    13:00 +31°C° 0 mm 3 m/s 749 mmHg 33%
    14:00 +32°C° 0 mm 4 m/s 749 mmHg 34%
    15:00 +30°C° 0 mm 3 m/s 749 mmHg 37%
    16:00 +29°C° 0 mm 3 m/s 749 mmHg 41%
    17:00 +29°C° 0 mm 3 m/s 749 mmHg 44%
    18:00 +27°C° 0 mm 2 m/s 749 mmHg 50%
    19:00 +25°C° 0 mm 2 m/s 749 mmHg 56%
    20:00 +23°C° 0 mm 1 m/s 749 mmHg 62%
    21:00 +22°C° 0 mm 1 m/s 749 mmHg 62%
    22:00 +22°C° 0 mm 1 m/s 749 mmHg 63%
    23:00 +21°C° 0 mm 1 m/s 749 mmHg 63%

    21 Iulie, Duminică

    Timp Temperatura Precipitaţii Vânt Presiune Umiditate
    00:00 +21°C° 0 mm 1 m/s 749 mmHg 61%
    01:00 +21°C° 0 mm 1 m/s 749 mmHg 58%
    02:00 +19°C° 0 mm 2 m/s 749 mmHg 56%
    03:00 +20°C° 0 mm 2 m/s 749 mmHg 55%
    04:00 +20°C° 0 mm 2 m/s 749 mmHg 53%
    05:00 +20°C° 0 mm 2 m/s 749 mmHg 51%
    06:00 +24°C° 0 mm 3 m/s 749 mmHg 47%
    07:00 +27°C° 0 mm 3 m/s 749 mmHg 42%
    08:00 +29°C° 0 mm 3 m/s 749 mmHg 37%
    09:00 +30°C° 0 mm 4 m/s 749 mmHg 35%
    10:00 +32°C° 0 mm 4 m/s 749 mmHg 33%
    11:00 +34°C° 0 mm 4 m/s 750 mmHg 31%
    12:00 +34°C° 0 mm 4 m/s 749 mmHg 30%
    13:00 +34°C° 0 mm 4 m/s 749 mmHg 29%
    14:00 +35°C° 0 mm 5 m/s 749 mmHg 27%
    15:00 +34°C° 0 mm 5 m/s 749 mmHg 29%
    16:00 +33°C° 0 mm 5 m/s 749 mmHg 31%
    17:00 +32°C° 0 mm 5 m/s 749 mmHg 32%
    18:00 +29°C° 0 mm 4 m/s 749 mmHg 37%
    19:00 +27°C° 0 mm 3 m/s 749 mmHg 42%
    20:00 +25°C° 0 mm 2 m/s 749 mmHg 47%
    21:00 +24°C° 0 mm 2 m/s 749 mmHg 46%
    22:00 +24°C° 0 mm 2 m/s 749 mmHg 45%
    23:00 +23°C° 0 mm 1 m/s 749 mmHg 45%
    Arată mai mult